Погода в Новомиргороде

Украина / Кировоградская область     48°48′00″N   31°39′04″E
темп.,
°C
ветер,
м/с
пор.,
м/с
влажн.,
%
обл.,
%
осадки,
мм/ч
давл.,
гПа
погр.,
м
1 августа, вс
вс100:00+22в22570 0.0 101112
03:00+21ю235514 0.0 101121
06:00+21ююз236373 0.0 101137
09:00+27ююз46542 0.0 1011438
12:00+31ююз67350 0.0 10111938
15:00+33ююз67321 0.0 10102559
18:00+32ююз463684 0.0 10092460
21:00+28ююз465264 0.0 1009153
2 августа, пн
пн200:00+24юз511615 0.0 1010219
03:00+21юз387315 0.0 1010150
06:00+21ююз410755 0.0 1010207
09:00+28ю6105310 0.0 1009511
12:00+33ююз8113913 0.0 10081570
15:00+34юз7113387 0.0 10073133
18:00+24св337858 5.1 1008221
21:00+20всв2495100 10.0 1009110
3 августа, вт
вт300:00+19вюв24950 3.3 1010103
03:00+19сз49962 3.3 1011283
06:00+16ссз511910 0.0 1013329
09:00+19с57723 0.0 1014607
12:00+23ссз565349 0.0 10151280
15:00+25ссз454418 0.0 10142023
18:00+26сз454235 0.0 10141986
21:00+22сз2454100 0.0 101690
4 августа, ср
ср400:00+18ссз36665 0.0 101795
03:00+17ссв22640 0.0 101720
06:00+16с11714 0.0 101811
09:00+22ссв11530 0.0 1019419
12:00+26з22400 0.0 10181733
15:00+28сз23362 0.0 10172278
18:00+27св12365 0.0 10162003
21:00+22в485290 0.0 1017145
5 августа, чт
чт500:00+20юв3956100 0.0 1017169
03:00+19юв4954100 0.0 1017173
06:00+19ююз33565 0.0 101640
09:00+25юз2350100 0.1 1016351
12:00+30ююз5733100 0.0 10152105
15:00+31ююз5629100 0.0 10142463
18:00+31ю453296 0.0 10122065
21:00+24ююв45455 0.0 101267